Time,TemperatureF,DewpointF,PressureIn,WindDirection,WindDirectionDegrees,WindSpeedMPH,WindSpeedGustMPH,Humidity,HourlyPrecipIn,Conditions,Clouds,dailyrainin,SoftwareType,DateUTC
2013-10-09 00:05:00,58.0,51.0,30.14,North,0,0.0,1.0,77,0.00,,,0.01,,2013-10-09 04:05:00,
2013-10-09 00:14:00,58.0,51.0,30.14,North,0,0.0,1.0,77,0.00,,,0.01,,2013-10-09 04:14:00,
2013-10-09 00:24:00,58.0,51.0,30.14,North,0,0.0,5.0,77,0.00,,,0.01,,2013-10-09 04:24:00,
2013-10-09 00:44:00,58.0,51.0,30.13,North,0,0.0,0.0,78,0.00,,,0.01,,2013-10-09 04:44:00,
2013-10-09 00:54:00,58.0,51.0,30.12,North,0,0.0,2.0,78,0.00,,,0.01,,2013-10-09 04:54:00,
2013-10-09 01:22:00,58.0,52.0,30.11,North,0,0.0,4.0,80,0.00,,,0.01,,2013-10-09 05:22:00,
2013-10-09 01:52:00,58.0,52.0,30.12,North,0,0.0,5.0,80,0.00,,,0.01,,2013-10-09 05:52:00,
2013-10-09 02:22:00,57.0,52.0,30.11,North,0,0.0,0.0,83,0.00,,,0.01,,2013-10-09 06:22:00,
2013-10-09 02:42:00,58.0,52.0,30.11,North,0,0.0,0.0,81,0.00,,,0.01,,2013-10-09 06:42:00,
2013-10-09 02:52:00,58.0,52.0,30.11,North,0,0.0,5.0,81,0.00,,,0.01,,2013-10-09 06:52:00,
2013-10-09 03:22:00,58.0,52.0,30.09,North,0,0.0,4.0,80,0.00,,,0.01,,2013-10-09 07:22:00,
2013-10-09 03:42:00,57.0,51.0,30.10,North,0,0.0,1.0,81,0.00,,,0.01,,2013-10-09 07:42:00,
2013-10-09 03:52:00,57.0,51.0,30.09,North,0,0.0,6.0,81,0.00,,,0.01,,2013-10-09 07:52:00,
2013-10-09 04:23:00,57.0,52.0,30.09,North,0,0.0,0.0,82,0.00,,,0.01,,2013-10-09 08:23:00,
2013-10-09 04:42:00,57.0,52.0,30.08,North,0,0.0,0.0,82,0.00,,,0.01,,2013-10-09 08:42:00,
2013-10-09 04:53:00,57.0,52.0,30.07,North,0,0.0,3.0,82,0.00,,,0.01,,2013-10-09 08:53:00,
2013-10-09 05:22:00,57.0,52.0,30.08,North,0,0.0,4.0,82,0.00,,,0.01,,2013-10-09 09:22:00,
2013-10-09 05:43:00,57.0,51.0,30.08,NNW,342,1.0,6.0,81,0.00,,,0.01,,2013-10-09 09:43:00,
2013-10-09 05:53:00,57.0,51.0,30.09,North,0,0.0,0.0,81,0.00,,,0.01,,2013-10-09 09:53:00,
2013-10-09 06:23:00,57.0,51.0,30.09,North,0,0.0,5.0,81,0.00,,,0.01,,2013-10-09 10:23:00,
2013-10-09 06:43:00,57.0,52.0,30.09,North,0,0.0,5.0,82,0.00,,,0.01,,2013-10-09 10:43:00,
2013-10-09 06:53:00,57.0,52.0,30.10,North,0,0.0,2.0,82,0.00,,,0.01,,2013-10-09 10:53:00,
2013-10-09 07:22:00,57.0,52.0,30.09,North,0,0.0,1.0,83,0.00,,,0.01,,2013-10-09 11:22:00,
2013-10-09 07:52:00,55.0,52.0,30.09,North,0,0.0,0.0,90,0.00,,,0.01,,2013-10-09 11:52:00,
2013-10-09 08:12:00,55.0,52.0,30.09,North,0,0.0,1.0,90,0.00,,,0.01,,2013-10-09 12:12:00,
2013-10-09 08:22:00,55.0,52.0,30.10,North,0,0.0,2.0,90,0.00,,,0.01,,2013-10-09 12:22:00,
2013-10-09 08:42:00,56.0,53.0,30.10,North,0,0.0,0.0,89,0.00,,,0.01,,2013-10-09 12:42:00,
2013-10-09 08:52:00,56.0,53.0,30.10,North,0,0.0,0.0,89,0.00,,,0.01,,2013-10-09 12:52:00,
2013-10-09 09:11:00,57.0,53.0,30.11,North,0,0.0,5.0,88,0.00,,,0.00,,2013-10-09 13:11:00,
2013-10-09 09:22:00,57.0,53.0,30.11,North,0,0.0,6.0,86,0.00,,,0.00,,2013-10-09 13:22:00,
2013-10-09 09:33:00,57.0,53.0,30.11,North,0,0.0,6.0,86,0.00,,,0.00,,2013-10-09 13:33:00,
2013-10-09 09:42:00,57.0,53.0,30.11,North,0,0.0,6.0,86,0.00,,,0.00,,2013-10-09 13:42:00,
2013-10-09 09:52:00,57.0,53.0,30.11,North,0,0.0,6.0,86,0.00,,,0.00,,2013-10-09 13:52:00,
2013-10-09 10:11:00,58.0,54.0,30.11,NW,315,1.0,7.0,86,0.00,,,0.00,,2013-10-09 14:11:00,
2013-10-09 10:22:00,58.0,54.0,30.12,NNW,329,1.0,6.0,85,0.00,,,0.00,,2013-10-09 14:22:00,
2013-10-09 10:42:00,58.0,54.0,30.12,North,0,0.0,9.0,85,0.00,,,0.00,,2013-10-09 14:42:00,
2013-10-09 10:52:00,59.0,54.0,30.12,North,0,0.0,4.0,84,0.00,,,0.00,,2013-10-09 14:52:00,
2013-10-09 11:22:00,59.0,54.0,30.11,North,0,0.0,9.0,83,0.00,,,0.00,,2013-10-09 15:22:00,
2013-10-09 11:53:00,60.0,55.0,30.12,North,0,0.0,8.0,83,0.00,,,0.00,,2013-10-09 15:53:00,
2013-10-09 12:24:00,60.0,55.0,30.11,NNW,334,1.0,8.0,83,0.00,,,0.00,,2013-10-09 16:24:00,
2013-10-09 12:32:00,60.0,55.0,30.11,NNW,334,1.0,8.0,83,0.00,,,0.00,,2013-10-09 16:32:00,
2013-10-09 12:42:00,60.0,55.0,30.11,NNW,334,1.0,8.0,83,0.00,,,0.00,,2013-10-09 16:42:00,
2013-10-09 12:52:00,60.0,56.0,30.11,North,0,0.0,3.0,86,0.00,,,0.00,,2013-10-09 16:52:00,
2013-10-09 13:22:00,61.0,56.0,30.10,North,0,0.0,7.0,84,0.00,,,0.00,,2013-10-09 17:22:00,
2013-10-09 13:42:00,61.0,55.0,30.10,NW,326,2.0,7.0,81,0.00,,,0.00,,2013-10-09 17:42:00,
2013-10-09 13:52:00,61.0,55.0,30.09,North,0,0.0,9.0,82,0.00,,,0.00,,2013-10-09 17:52:00,
2013-10-09 14:22:00,62.0,57.0,30.09,North,0,0.0,7.0,83,0.00,,,0.00,,2013-10-09 18:22:00,
2013-10-09 14:42:00,62.0,56.0,30.09,NNW,330,2.0,9.0,82,0.00,,,0.00,,2013-10-09 18:42:00,
2013-10-09 14:52:00,61.0,56.0,30.09,NNW,345,1.0,11.0,83,0.00,,,0.00,,2013-10-09 18:52:00,
2013-10-09 15:12:00,60.0,55.0,30.09,NW,304,2.0,9.0,85,0.00,,,0.00,,2013-10-09 19:12:00,
2013-10-09 15:22:00,60.0,56.0,30.08,NW,307,1.0,4.0,86,0.00,,,0.00,,2013-10-09 19:22:00,
2013-10-09 15:42:00,60.0,56.0,30.09,NW,320,2.0,5.0,87,0.00,,,0.00,,2013-10-09 19:42:00,
2013-10-09 15:52:00,59.0,56.0,30.09,North,0,0.0,6.0,89,0.00,,,0.00,,2013-10-09 19:52:00,
2013-10-09 16:22:00,59.0,56.0,30.08,North,0,0.0,5.0,89,0.00,,,0.00,,2013-10-09 20:22:00,
2013-10-09 16:43:00,59.0,55.0,30.08,North,0,0.0,7.0,88,0.00,,,0.00,,2013-10-09 20:43:00,
2013-10-09 16:52:00,60.0,56.0,30.06,North,0,0.0,9.0,87,0.00,,,0.00,,2013-10-09 20:52:00,
2013-10-09 17:22:00,59.0,55.0,30.06,NW,319,1.0,7.0,87,0.00,,,0.00,,2013-10-09 21:22:00,
2013-10-09 17:44:00,59.0,55.0,30.06,North,6,1.0,10.0,87,0.00,,,0.00,,2013-10-09 21:44:00,
2013-10-09 17:54:00,59.0,55.0,30.07,NNW,327,1.0,11.0,87,0.00,,,0.00,,2013-10-09 21:54:00,
2013-10-09 18:24:00,58.0,55.0,30.07,NW,308,1.0,6.0,89,0.00,,,0.00,,2013-10-09 22:24:00,
2013-10-09 18:43:00,58.0,55.0,30.07,North,0,0.0,4.0,90,0.00,,,0.00,,2013-10-09 22:43:00,
2013-10-09 18:53:00,58.0,55.0,30.06,North,0,0.0,10.0,91,0.01,,,0.01,,2013-10-09 22:53:00,
2013-10-09 19:22:00,57.0,55.0,30.07,North,0,0.0,7.0,93,0.02,,,0.02,,2013-10-09 23:22:00,
2013-10-09 19:53:00,56.0,54.0,30.06,NNW,347,2.0,6.0,94,0.02,,,0.03,,2013-10-09 23:53:00,
2013-10-09 20:12:00,56.0,55.0,30.06,NNW,348,1.0,7.0,95,0.02,,,0.03,,2013-10-10 00:12:00,
2013-10-09 20:22:00,56.0,55.0,30.06,North,0,0.0,9.0,95,0.01,,,0.03,,2013-10-10 00:22:00,
2013-10-09 20:42:00,56.0,54.0,30.06,North,0,0.0,8.0,94,0.00,,,0.03,,2013-10-10 00:42:00,
2013-10-09 20:52:00,56.0,55.0,30.06,North,0,0.0,5.0,95,0.01,,,0.04,,2013-10-10 00:52:00,
2013-10-09 21:11:00,56.0,55.0,30.06,NNW,337,1.0,5.0,95,0.01,,,0.04,,2013-10-10 01:11:00,
2013-10-09 21:21:00,56.0,55.0,30.06,North,0,0.0,8.0,95,0.01,,,0.04,,2013-10-10 01:21:00,
2013-10-09 21:42:00,56.0,55.0,30.05,North,351,1.0,7.0,95,0.02,,,0.05,,2013-10-10 01:42:00,
2013-10-09 21:52:00,55.0,54.0,30.05,NNW,327,1.0,6.0,95,0.03,,,0.07,,2013-10-10 01:52:00,
2013-10-09 22:12:00,55.0,54.0,30.05,North,0,0.0,7.0,95,0.03,,,0.07,,2013-10-10 02:12:00,
2013-10-09 22:22:00,55.0,54.0,30.05,NNW,337,1.0,9.0,96,0.03,,,0.07,,2013-10-10 02:22:00,
2013-10-09 23:22:00,55.0,54.0,30.04,North,0,0.0,7.0,96,0.03,,,0.10,,2013-10-10 03:22:00,
2013-10-09 23:44:00,54.0,53.0,30.04,NNE,17,1.0,8.0,96,0.01,,,0.10,,2013-10-10 03:44:00,
2013-10-09 23:54:00,54.0,53.0,30.03,North,349,1.0,9.0,96,0.00,,,0.10,,2013-10-10 03:54:00,